IGO433 VELP-VECC

Flight info

Callsign IGO433
Flight time 0h 50m
Altitude 32000
Route LLP W84 AAT B593 NOKAT NOKAT2A
Aircraft A20N/M-SDE2E3FGHIRWXY/LB1

Departure

Time 2026-04-27 08:03
Airport Lengpui Airport (VELP)

Arrival

Time 2026-04-27 08:53
Airport Netaji Subhash Chandra Bose International Airport (VECC)
Time Latitude Longitude Altitude Speed Heading
2026-04-27 07:52 23.83895 92.62307 1443 ft 0 kts 169°
2026-04-27 07:57 23.83894 92.62307 1445 ft 0 kts 169°
2026-04-27 07:58 23.83887 92.62307 1445 ft 1 kts 189°
2026-04-27 07:58 23.83874 92.62297 1445 ft 3 kts 235°
2026-04-27 07:58 23.83867 92.62263 1444 ft 6 kts 258°
2026-04-27 07:58 23.83859 92.62207 1443 ft 8 kts 261°
2026-04-27 07:59 23.83849 92.62133 1443 ft 10 kts 261°
2026-04-27 07:59 23.83805 92.62004 1445 ft 9 kts 200°
2026-04-27 07:59 23.83739 92.62009 1445 ft 10 kts 170°
2026-04-27 08:00 23.83665 92.62023 1445 ft 11 kts 170°
2026-04-27 08:00 23.83582 92.62038 1444 ft 12 kts 171°
2026-04-27 08:00 23.83487 92.62054 1442 ft 14 kts 170°
2026-04-27 08:00 23.83385 92.62072 1442 ft 14 kts 171°
2026-04-27 08:01 23.83282 92.62089 1442 ft 14 kts 171°
2026-04-27 08:01 23.83179 92.62107 1442 ft 15 kts 170°
2026-04-27 08:01 23.83072 92.62128 1441 ft 16 kts 160°
2026-04-27 08:01 23.82993 92.62199 1439 ft 11 kts 183°
2026-04-27 08:02 23.83002 92.62139 1439 ft 11 kts 338°
2026-04-27 08:02 23.83023 92.62134 1440 ft 0 kts 351°
2026-04-27 08:02 23.83024 92.62134 1440 ft 2 kts 351°
2026-04-27 08:02 23.83253 92.62095 1442 ft 70 kts 351°
2026-04-27 08:03 23.83967 92.61972 1446 ft 135 kts 351°
2026-04-27 08:03 23.85081 92.61783 1583 ft 173 kts 351°
2026-04-27 08:03 23.86258 92.61591 2208 ft 173 kts 349°
2026-04-27 08:03 23.87484 92.61393 2723 ft 187 kts 349°
2026-04-27 08:04 23.88820 92.61191 3200 ft 203 kts 349°
2026-04-27 08:04 23.90285 92.60980 3684 ft 221 kts 349°
2026-04-27 08:04 23.91905 92.60745 4066 ft 244 kts 349°
2026-04-27 08:04 23.93649 92.60485 4566 ft 263 kts 349°
2026-04-27 08:05 23.95518 92.60205 5101 ft 281 kts 349°
2026-04-27 08:05 23.97487 92.59908 5788 ft 290 kts 349°
2026-04-27 08:05 23.99423 92.59309 6527 ft 289 kts 325°
2026-04-27 08:05 24.00782 92.57797 7322 ft 280 kts 292°
2026-04-27 08:06 24.01228 92.55776 8128 ft 274 kts 269°
2026-04-27 08:06 24.01214 92.53722 8927 ft 276 kts 267°
2026-04-27 08:06 24.01180 92.51607 9716 ft 279 kts 267°
2026-04-27 08:06 24.01147 92.49496 10376 ft 285 kts 268°
2026-04-27 08:07 24.01114 92.47276 10741 ft 302 kts 268°
2026-04-27 08:07 24.01079 92.44920 11081 ft 318 kts 268°
2026-04-27 08:07 24.01043 92.42491 11708 ft 324 kts 268°
2026-04-27 08:07 24.01006 92.40043 12467 ft 325 kts 269°
2026-04-27 08:08 24.00970 92.37575 13286 ft 325 kts 269°
2026-04-27 08:08 24.00931 92.35111 13947 ft 328 kts 269°
2026-04-27 08:08 24.00892 92.32595 14613 ft 331 kts 269°
2026-04-27 08:08 24.00853 92.30085 15210 ft 335 kts 270°
2026-04-27 08:09 24.00813 92.27522 15818 ft 338 kts 270°
2026-04-27 08:09 24.00771 92.24967 16430 ft 340 kts 270°
2026-04-27 08:09 24.00730 92.22392 17039 ft 343 kts 271°
2026-04-27 08:09 24.00687 92.19767 17624 ft 345 kts 271°
2026-04-27 08:10 24.00647 92.17152 18173 ft 348 kts 270°
2026-04-27 08:10 24.00605 92.14515 18752 ft 350 kts 270°
2026-04-27 08:10 24.00563 92.11858 19332 ft 352 kts 270°
2026-04-27 08:10 24.00516 92.09151 19876 ft 355 kts 270°
2026-04-27 08:11 24.00470 92.06462 20387 ft 358 kts 271°
2026-04-27 08:11 24.00422 92.03749 20897 ft 361 kts 270°
2026-04-27 08:11 24.00374 92.00988 21403 ft 363 kts 270°
2026-04-27 08:11 24.00327 91.98232 21890 ft 366 kts 270°
2026-04-27 08:12 24.00274 91.95432 22376 ft 369 kts 270°
2026-04-27 08:12 24.00222 91.92648 22872 ft 371 kts 270°
2026-04-27 08:12 24.00166 91.89837 23366 ft 373 kts 269°
2026-04-27 08:12 23.99983 91.86977 23837 ft 377 kts 266°
2026-04-27 08:13 23.99655 91.84138 24260 ft 381 kts 263°
2026-04-27 08:13 23.99190 91.81300 24721 ft 383 kts 262°
2026-04-27 08:13 23.98687 91.78426 25165 ft 385 kts 262°
2026-04-27 08:13 23.98181 91.75530 25559 ft 389 kts 262°
2026-04-27 08:14 23.97679 91.72656 25943 ft 392 kts 262°
2026-04-27 08:14 23.97164 91.69720 26359 ft 394 kts 262°
2026-04-27 08:14 23.96647 91.66788 26751 ft 396 kts 262°
2026-04-27 08:14 23.96120 91.63792 27127 ft 399 kts 262°
2026-04-27 08:15 23.95597 91.60828 27513 ft 401 kts 262°
2026-04-27 08:15 23.95065 91.57815 27918 ft 403 kts 262°
2026-04-27 08:15 23.94541 91.54833 28259 ft 405 kts 262°
2026-04-27 08:15 23.94004 91.51801 28702 ft 405 kts 262°
2026-04-27 08:16 23.93474 91.48811 29250 ft 403 kts 262°
2026-04-27 08:16 23.92943 91.45808 29765 ft 401 kts 262°
2026-04-27 08:16 23.92412 91.42812 30220 ft 400 kts 262°
2026-04-27 08:16 23.91883 91.39835 30582 ft 402 kts 262°
2026-04-27 08:17 23.91353 91.36852 30899 ft 404 kts 261°
2026-04-27 08:17 23.90545 91.33875 31225 ft 410 kts 251°
2026-04-27 08:17 23.89245 91.31078 31567 ft 416 kts 242°
2026-04-27 08:17 23.87537 91.28563 31686 ft 419 kts 233°
2026-04-27 08:18 23.82961 91.24611 31694 ft 426 kts 213°
2026-04-27 08:18 23.77248 91.22586 31698 ft 441 kts 193°
2026-04-27 08:19 23.71125 91.21909 31703 ft 443 kts 191°
2026-04-27 08:19 23.64983 91.21297 31693 ft 442 kts 191°
2026-04-27 08:20 23.58829 91.20651 31693 ft 441 kts 191°
2026-04-27 08:20 23.52773 91.19796 31692 ft 435 kts 200°
2026-04-27 08:21 23.47340 91.17233 31693 ft 420 kts 219°
2026-04-27 08:21 23.43065 91.13065 31702 ft 409 kts 236°
2026-04-27 08:22 23.40215 91.07760 31706 ft 408 kts 252°
2026-04-27 08:22 23.38477 91.01861 31704 ft 412 kts 256°
2026-04-27 08:23 23.36805 90.95875 31702 ft 412 kts 256°
2026-04-27 08:23 23.35102 90.89835 31694 ft 412 kts 256°
2026-04-27 08:24 23.33443 90.83971 31695 ft 412 kts 256°
2026-04-27 08:24 23.31755 90.78045 31688 ft 412 kts 256°
2026-04-27 08:25 23.30057 90.72097 31683 ft 412 kts 256°
2026-04-27 08:25 23.28363 90.66170 31688 ft 412 kts 256°
2026-04-27 08:26 23.26668 90.60245 31683 ft 412 kts 256°
2026-04-27 08:26 23.24964 90.54301 31683 ft 411 kts 256°
2026-04-27 08:27 23.23260 90.48369 31684 ft 412 kts 256°
2026-04-27 08:27 23.21564 90.42434 31685 ft 411 kts 256°
2026-04-27 08:28 23.19918 90.36497 31684 ft 411 kts 257°
2026-04-27 08:28 23.18267 90.30540 31683 ft 411 kts 256°
2026-04-27 08:29 23.16619 90.24611 31678 ft 411 kts 256°
2026-04-27 08:29 23.14969 90.18684 31673 ft 411 kts 256°
2026-04-27 08:30 23.13307 90.12731 31665 ft 411 kts 256°
2026-04-27 08:30 23.11652 90.06808 31666 ft 411 kts 256°
2026-04-27 08:31 23.09993 90.00891 31673 ft 411 kts 256°
2026-04-27 08:31 23.08319 89.94960 31676 ft 411 kts 256°
2026-04-27 08:32 23.06615 89.89024 31666 ft 411 kts 256°
2026-04-27 08:32 23.05774 89.86094 31499 ft 412 kts 256°
2026-04-27 08:32 23.04922 89.83131 31240 ft 409 kts 256°
2026-04-27 08:33 23.04076 89.80186 30869 ft 407 kts 256°
2026-04-27 08:33 23.03239 89.77276 30346 ft 405 kts 256°
2026-04-27 08:33 23.02405 89.74384 29711 ft 405 kts 256°
2026-04-27 08:33 23.01565 89.71464 29033 ft 405 kts 256°
2026-04-27 08:34 23.00721 89.68534 28308 ft 406 kts 256°
2026-04-27 08:34 22.99883 89.65628 27653 ft 405 kts 256°
2026-04-27 08:34 22.99046 89.62726 27168 ft 400 kts 256°
2026-04-27 08:34 22.98217 89.59860 26677 ft 396 kts 256°
2026-04-27 08:35 22.97403 89.57047 26188 ft 392 kts 256°
2026-04-27 08:35 22.96586 89.54221 25698 ft 389 kts 256°
2026-04-27 08:35 22.95786 89.51457 25219 ft 386 kts 256°
2026-04-27 08:35 22.94994 89.48722 24741 ft 382 kts 256°
2026-04-27 08:36 22.94193 89.45953 24254 ft 380 kts 256°
2026-04-27 08:36 22.93405 89.43238 23763 ft 377 kts 256°
2026-04-27 08:36 22.92622 89.40543 23274 ft 375 kts 256°
2026-04-27 08:36 22.91844 89.37862 22778 ft 373 kts 256°
2026-04-27 08:37 22.91064 89.35178 22293 ft 371 kts 256°
2026-04-27 08:37 22.90293 89.32533 21821 ft 369 kts 255°
2026-04-27 08:37 22.89526 89.29899 21352 ft 367 kts 256°
2026-04-27 08:37 22.88752 89.27245 20869 ft 365 kts 256°
2026-04-27 08:38 22.87995 89.24644 20398 ft 363 kts 255°
2026-04-27 08:38 22.87239 89.22051 19930 ft 361 kts 256°
2026-04-27 08:38 22.86482 89.19454 19445 ft 359 kts 255°
2026-04-27 08:38 22.85901 89.17465 19094 ft 357 kts 256°
2026-04-27 08:39 22.85859 89.17323 19069 ft 357 kts 256°
2026-04-27 08:39 22.85249 89.15237 18691 ft 355 kts 256°
2026-04-27 08:39 22.84509 89.12705 18215 ft 353 kts 256°
2026-04-27 08:40 22.83777 89.10204 17749 ft 351 kts 256°
2026-04-27 08:40 22.83035 89.07671 17279 ft 349 kts 256°
2026-04-27 08:40 22.82306 89.05183 16840 ft 346 kts 256°
2026-04-27 08:40 22.81580 89.02701 16315 ft 345 kts 256°
2026-04-27 08:41 22.80856 89.00235 15815 ft 343 kts 256°
2026-04-27 08:41 22.80138 88.97790 15549 ft 334 kts 256°
2026-04-27 08:41 22.79509 88.95397 15071 ft 330 kts 263°
2026-04-27 08:41 22.79405 88.92920 14172 ft 336 kts 277°
2026-04-27 08:42 22.79833 88.90417 13389 ft 340 kts 284°
2026-04-27 08:42 22.80359 88.87934 12871 ft 336 kts 284°
2026-04-27 08:42 22.80875 88.85484 12359 ft 333 kts 284°
2026-04-27 08:42 22.81503 88.83120 11753 ft 331 kts 294°
2026-04-27 08:43 22.82540 88.80868 11161 ft 331 kts 298°
2026-04-27 08:43 22.83655 88.78709 10599 ft 329 kts 300°
2026-04-27 08:43 22.84785 88.76562 10040 ft 328 kts 300°
2026-04-27 08:43 22.85920 88.74409 9690 ft 327 kts 300°
2026-04-27 08:44 22.87024 88.72311 9625 ft 312 kts 300°
2026-04-27 08:44 22.88070 88.70331 9618 ft 293 kts 300°
2026-04-27 08:44 22.89061 88.68456 9612 ft 276 kts 300°
2026-04-27 08:44 22.89988 88.66699 9464 ft 266 kts 300°
2026-04-27 08:45 22.90904 88.64957 8990 ft 269 kts 300°
2026-04-27 08:45 22.91835 88.63191 8551 ft 269 kts 300°
2026-04-27 08:45 22.92764 88.61434 7958 ft 267 kts 300°
2026-04-27 08:45 22.93690 88.59699 7222 ft 268 kts 300°
2026-04-27 08:46 22.94624 88.57980 6481 ft 269 kts 300°
2026-04-27 08:46 22.95582 88.56248 5776 ft 269 kts 300°
2026-04-27 08:46 22.96557 88.54517 5061 ft 269 kts 300°
2026-04-27 08:46 22.97356 88.52734 4324 ft 267 kts 280°
2026-04-27 08:47 22.97342 88.50756 3684 ft 264 kts 250°
2026-04-27 08:47 22.96418 88.49096 3464 ft 250 kts 221°
2026-04-27 08:47 22.94945 88.48216 3285 ft 240 kts 194°
2026-04-27 08:47 22.93330 88.47935 3132 ft 232 kts 186°
2026-04-27 08:48 22.91745 88.47791 3016 ft 221 kts 185°
2026-04-27 08:48 22.90230 88.47658 2898 ft 214 kts 186°
2026-04-27 08:48 22.88732 88.47509 2792 ft 214 kts 186°
2026-04-27 08:48 22.87256 88.47347 2677 ft 213 kts 187°
2026-04-27 08:49 22.85767 88.47175 2564 ft 212 kts 187°
2026-04-27 08:49 22.84317 88.47002 2447 ft 211 kts 187°
2026-04-27 08:49 22.82841 88.46826 2331 ft 210 kts 187°
2026-04-27 08:49 22.81385 88.46652 2215 ft 209 kts 187°
2026-04-27 08:50 22.79916 88.46478 2100 ft 209 kts 187°
2026-04-27 08:50 22.78495 88.46310 1978 ft 201 kts 187°
2026-04-27 08:50 22.77147 88.46151 1889 ft 188 kts 187°
2026-04-27 08:50 22.75914 88.46006 1700 ft 171 kts 187°
2026-04-27 08:51 22.74782 88.45873 1478 ft 156 kts 186°
2026-04-27 08:51 22.73739 88.45750 1254 ft 143 kts 186°
2026-04-27 08:51 22.72774 88.45634 1055 ft 134 kts 186°
2026-04-27 08:51 22.71843 88.45526 903 ft 133 kts 186°
2026-04-27 08:52 22.70923 88.45416 752 ft 134 kts 184°
2026-04-27 08:52 22.69988 88.45319 580 ft 134 kts 184°
2026-04-27 08:52 22.69064 88.45202 397 ft 134 kts 185°
2026-04-27 08:52 22.68132 88.45087 227 ft 134 kts 184°
2026-04-27 08:53 22.67198 88.44978 76 ft 135 kts 184°
2026-04-27 08:53 22.66313 88.44877 22 ft 109 kts 186°
2026-04-27 08:53 22.65726 88.44808 22 ft 59 kts 186°
2026-04-27 08:53 22.65409 88.44772 24 ft 41 kts 187°
2026-04-27 08:54 22.65141 88.44740 25 ft 36 kts 186°
2026-04-27 08:54 22.64926 88.44659 24 ft 31 kts 210°
2026-04-27 08:54 22.64739 88.44538 24 ft 29 kts 213°
2026-04-27 08:54 22.64574 88.44465 23 ft 24 kts 186°
2026-04-27 08:55 22.64406 88.44446 22 ft 23 kts 186°
2026-04-27 08:55 22.64248 88.44428 22 ft 22 kts 186°
2026-04-27 08:55 22.64106 88.44410 21 ft 12 kts 187°
2026-04-27 08:55 22.64041 88.44389 21 ft 9 kts 230°
2026-04-27 08:56 22.64016 88.44328 22 ft 8 kts 253°
2026-04-27 08:56 22.64005 88.44265 22 ft 8 kts 267°
2026-04-27 08:56 22.64009 88.44195 22 ft 9 kts 277°
2026-04-27 08:56 22.64018 88.44122 23 ft 9 kts 290°
2026-04-27 08:57 22.64082 88.44045 24 ft 2 kts 317°
2026-04-27 08:57 22.64095 88.44031 24 ft 0 kts 316°